TimeAKDT,TemperatureF,Dew PointF,Humidity,Sea Level PressureIn,VisibilityMPH,Wind Direction,Wind SpeedMPH,Gust SpeedMPH,PrecipitationIn,Events,Conditions,WindDirDegrees,DateUTC
12:53 AM,12.0,9.0,88,29.48,3.0,SSE,8.1,-,0.00,,Overcast,150,2013-05-16 08:53:00
12:58 AM,10.4,8.6,92,29.48,0.8,SE,5.8,-,N/A,,Overcast,140,2013-05-16 08:58:00
1:19 AM,10.4,6.8,85,29.47,0.2,ESE,5.8,-,N/A,Fog,Light Freezing Fog,110,2013-05-16 09:19:00
1:26 AM,10.4,6.8,85,29.47,0.2,ESE,6.9,-,N/A,Fog,Light Freezing Fog,110,2013-05-16 09:26:00
1:53 AM,10.0,7.0,87,29.47,0.2,SE,4.6,-,N/A,Fog,Light Freezing Fog,130,2013-05-16 09:53:00
2:53 AM,7.0,3.9,87,29.46,0.2,SE,3.5,-,N/A,Fog,Light Freezing Fog,130,2013-05-16 10:53:00
3:53 AM,6.1,1.9,83,29.45,0.2,NE,3.5,-,N/A,Fog,Light Freezing Fog,50,2013-05-16 11:53:00
4:53 AM,5.0,1.0,84,29.44,0.2,NE,6.9,-,N/A,Fog,Light Freezing Fog,40,2013-05-16 12:53:00
5:53 AM,3.9,1.0,88,29.44,1.0,ENE,8.1,-,0.00,,Mist,70,2013-05-16 13:53:00
5:57 AM,3.2,-0.4,85,29.43,3.0,ENE,5.8,-,N/A,,Mostly Cloudy,60,2013-05-16 13:57:00
6:04 AM,3.2,-0.4,85,29.43,6.0,NE,4.6,-,N/A,,Scattered Clouds,50,2013-05-16 14:04:00
6:53 AM,6.1,1.0,80,29.41,10.0,NNE,9.2,-,N/A,,Clear,30,2013-05-16 14:53:00
7:53 AM,10.0,5.0,80,29.39,10.0,NE,10.4,-,N/A,,Overcast,50,2013-05-16 15:53:00
8:53 AM,12.9,8.1,81,29.38,10.0,ENE,12.7,-,N/A,,Overcast,60,2013-05-16 16:53:00
9:53 AM,15.1,10.0,80,29.37,2.5,ENE,13.8,-,0.00,Snow,Light Snow,70,2013-05-16 17:53:00
10:03 AM,15.8,10.4,79,29.36,3.0,ENE,11.5,-,0.00,Snow,Light Snow,70,2013-05-16 18:03:00
10:53 AM,19.0,14.0,81,29.35,9.0,East,13.8,-,0.00,,Overcast,80,2013-05-16 18:53:00
11:53 AM,19.9,15.1,81,29.33,8.0,East,17.3,-,0.00,,Overcast,90,2013-05-16 19:53:00
12:21 PM,21.2,15.8,80,29.32,2.0,East,16.1,-,0.00,Snow,Light Snow,80,2013-05-16 20:21:00
12:34 PM,21.2,17.6,86,29.32,4.0,East,17.3,-,0.00,Snow,Light Snow,90,2013-05-16 20:34:00
12:53 PM,23.0,18.0,81,29.32,5.0,East,17.3,-,0.00,Snow,Light Snow,90,2013-05-16 20:53:00
1:53 PM,26.1,21.0,81,29.30,10.0,East,20.7,-,0.00,,Overcast,100,2013-05-16 21:53:00
2:53 PM,28.0,21.0,75,29.29,10.0,ESE,25.3,-,N/A,,Mostly Cloudy,110,2013-05-16 22:53:00
3:53 PM,28.9,21.9,75,29.29,10.0,ESE,19.6,-,N/A,,Scattered Clouds,110,2013-05-16 23:53:00
4:53 PM,28.9,23.0,78,29.29,10.0,ESE,16.1,-,N/A,,Partly Cloudy,110,2013-05-17 00:53:00
5:53 PM,30.9,24.1,76,29.28,10.0,SE,16.1,21.9,N/A,,Scattered Clouds,130,2013-05-17 01:53:00
6:53 PM,27.0,21.0,78,29.26,9.0,SSE,29.9,-,0.01,,Clear,160,2013-05-17 02:53:00
7:21 PM,21.2,17.6,86,29.28,1.8,SSW,32.2,35.7,0.00,Snow,Light Snow,200,2013-05-17 03:21:00
7:53 PM,19.9,14.0,78,29.29,1.5,SSW,31.1,40.3,0.00,Snow,Light Snow,210,2013-05-17 03:53:00
8:06 PM,19.4,14.0,80,29.29,3.0,SSW,27.6,33.4,0.00,Snow,Light Snow,210,2013-05-17 04:06:00
8:53 PM,19.0,12.0,74,29.32,5.0,SSW,24.2,34.5,0.00,,Haze,210,2013-05-17 04:53:00
9:53 PM,16.0,10.0,77,29.34,10.0,South,20.7,-,N/A,,Clear,190,2013-05-17 05:53:00
10:53 PM,12.9,7.0,77,29.36,10.0,South,15.0,-,N/A,,Clear,170,2013-05-17 06:53:00
11:53 PM,10.9,5.0,77,29.37,10.0,South,15.0,-,N/A,,Clear,180,2013-05-17 07:53:00